User: anonymous   Login
Location: Unspecified
(0.0000°N, 0.0000°E)
Time: 23:50:44
(UTC+00:00)
Language:

AEROCUBE 14B - Orbit

View from above orbital plane
View from above orbital plane
View from above satellite
View from above satellite

Ground track
Ground track

The orbit data is extracted from the following two-line orbital elements,

1 45115U 19071E   21207.51045687  .00069947  00000-0  90700-3 0  9996
2 45115  51.6331 180.6422 0008044  79.2720 280.9178 15.58172282 83527
Epoch (UTC): 26 July 2021 12:15:03
Eccentricity: 0.0008044
inclination: 51.6331°
perigee height: 387 km
apogee height: 398 km
right ascension of ascending node: 180.6422°
argument of perigee: 79.2720°
revolutions per day: 15.58172282
mean anomaly at epoch: 280.9178°
orbit number at epoch: 8352

The dashed part of the orbit path shows where the satellite is in the earth's shadow,  

DLR